| time (UTC) | temp F | wind direction | speed MPH | gust MPH | rain 1hr in | rain 24hr in | rain mn in | humidity % | barometer mb |
| 20260504160355 | 66 | 222 | 4.0 | 5.0 | 0.00 | 0.00 | 0.00 | 41 | 1009.7 |
| 20260504150820 | 65 | 25 | 1.0 | 1.0 | 0.00 | 0.00 | 0.00 | 39 | 1010.3 |
| 20260504150316 | 66 | 243 | 6.0 | 8.0 | 0.00 | 0.00 | 0.00 | 39 | 1010.2 |
| 20260504141246 | 63 | 258 | 3.0 | 3.0 | 0.00 | 0.00 | 0.00 | 49 | 1010.7 |
| 20260504140743 | 62 | 10 | 0.0 | 0.0 | 0.00 | 0.00 | 0.00 | 49 | 1010.7 |
| 20260504140238 | 61 | 105 | 2.0 | 3.0 | 0.00 | 0.00 | 0.00 | 55 | 1010.4 |
| 20260504130707 | 58 | 22 | 2.0 | 2.0 | 0.00 | 0.00 | 0.00 | 55 | 1011.3 |
| 20260504130203 | 58 | 216 | 5.0 | 6.0 | 0.00 | 0.00 | 0.00 | 54 | 1011.2 |
| 20260504120127 | 51 | 54 | 0.0 | 0.0 | 0.00 | 0.00 | 0.00 | 66 | 1011.2 |
| 20260504110554 | 48 | 221 | 5.0 | 8.0 | 0.00 | 0.00 | 0.00 | 65 | 1011.5 |
| 20260504100516 | 45 | 71 | 1.0 | 1.0 | 0.00 | 0.00 | 0.00 | 69 | 1011.6 |
| 20260504081910 | 47 | 68 | 0.0 | 0.0 | 0.00 | 0.00 | 0.00 | 72 | 1011.0 |
| 20260504081406 | 45 | 172 | 3.0 | 3.0 | 0.00 | 0.00 | 0.00 | 67 | 1011.1 |
| 20260504080902 | 46 | 61 | 1.0 | 1.0 | 0.00 | 0.00 | 0.00 | 69 | 1011.1 |
| 20260504080359 | 45 | 59 | 1.0 | 1.0 | 0.00 | 0.00 | 0.00 | 68 | 1011.3 |
| 20260504070326 | 46 | 56 | 0.0 | 0.0 | 0.00 | 0.00 | 0.00 | 67 | 1011.0 |
| 20260504060247 | 48 | 74 | 1.0 | 1.0 | 0.00 | 0.00 | 0.00 | 60 | 1011.0 |
| 20260504050715 | 49 | 123 | 2.0 | 2.0 | 0.00 | 0.00 | 0.00 | 57 | 1010.7 |
| 20260504050212 | 49 | 46 | 0.0 | 1.0 | 0.00 | 0.00 | 0.00 | 56 | 1010.7 |
| 20260504045709 | 49 | 103 | 1.0 | 1.0 | 0.00 | 0.00 | 0.00 | 56 | 1010.6 |
| 20260504045209 | 49 | 90 | 1.0 | 2.0 | 0.00 | 0.00 | 0.00 | 53 | 1010.6 |
| 20260504044708 | 49 | 43 | 0.0 | 0.0 | 0.00 | 0.00 | 0.00 | 57 | 1010.6 |
| 20260504044205 | 49 | 66 | 1.0 | 2.0 | 0.00 | 0.00 | 0.00 | 54 | 1010.7 |
| 20260504043701 | 50 | 49 | 0.0 | 0.0 | 0.00 | 0.00 | 0.00 | 58 | 1010.7 |
| 20260504043158 | 50 | 49 | 0.0 | 1.0 | 0.00 | 0.00 | 0.00 | 56 | 1010.6 |
| 20260504042656 | 50 | 63 | 0.0 | 1.0 | 0.00 | 0.00 | 0.00 | 56 | 1010.6 |
| 20260504042152 | 49 | 200 | 2.0 | 2.0 | 0.00 | 0.00 | 0.00 | 55 | 1010.5 |
| 20260504041648 | 49 | 51 | 0.0 | 0.0 | 0.00 | 0.00 | 0.00 | 65 | 1010.4 |
| 20260504041144 | 49 | 52 | 0.0 | 0.0 | 0.00 | 0.00 | 0.00 | 57 | 1010.4 |
| 20260504040641 | 48 | 62 | 0.0 | 0.0 | 0.00 | 0.00 | 0.00 | 64 | 1010.2 |
| 20260504040138 | 48 | 49 | 0.0 | 0.0 | 0.00 | 0.00 | 0.00 | 70 | 1010.3 |
| 20260504035635 | 47 | 49 | 0.0 | 0.0 | 0.00 | 0.00 | 0.00 | 67 | 1010.2 |
| 20260504035132 | 47 | 64 | 0.0 | 0.0 | 0.00 | 0.00 | 0.00 | 65 | 1010.1 |
| 20260504034630 | 47 | 67 | 0.0 | 0.0 | 0.00 | 0.00 | 0.00 | 65 | 1010.1 |
| 20260504034126 | 47 | 66 | 0.0 | 0.0 | 0.00 | 0.00 | 0.00 | 66 | 1010.1 |
| 20260504033624 | 47 | 66 | 0.0 | 0.0 | 0.00 | 0.00 | 0.00 | 67 | 1010.1 |
| 20260504033121 | 46 | 66 | 0.0 | 0.0 | 0.00 | 0.00 | 0.00 | 68 | 1010.1 |
| 20260504032618 | 47 | 66 | 0.0 | 0.0 | 0.00 | 0.00 | 0.00 | 72 | 1010.1 |
| 20260504032115 | 47 | 66 | 0.0 | 0.0 | 0.00 | 0.00 | 0.00 | 72 | 1010.2 |
| 20260504031612 | 47 | 55 | 0.0 | 0.0 | 0.00 | 0.00 | 0.00 | 71 | 1010.2 |
| 20260504031108 | 47 | 55 | 0.0 | 0.0 | 0.00 | 0.00 | 0.00 | 71 | 1010.0 |
| 20260504030605 | 46 | 55 | 0.0 | 0.0 | 0.00 | 0.00 | 0.00 | 69 | 1010.0 |
| 20260504025559 | 47 | 55 | 0.0 | 0.0 | 0.00 | 0.00 | 0.00 | 71 | 1010.1 |
| 20260504025055 | 47 | 55 | 0.0 | 0.0 | 0.00 | 0.00 | 0.00 | 66 | 1010.2 |
| 20260504024553 | 47 | 55 | 0.0 | 0.0 | 0.00 | 0.00 | 0.00 | 67 | 1010.0 |
| 20260504024049 | 47 | 55 | 0.0 | 0.0 | 0.00 | 0.00 | 0.00 | 66 | 1010.0 |
| 20260504023546 | 47 | 55 | 0.0 | 0.0 | 0.00 | 0.00 | 0.00 | 63 | 1010.0 |
| 20260504023042 | 47 | 55 | 0.0 | 0.0 | 0.00 | 0.00 | 0.00 | 68 | 1010.1 |
| 20260504022537 | 47 | 55 | 0.0 | 0.0 | 0.00 | 0.00 | 0.00 | 67 | 1010.1 |
| 20260504022034 | 47 | 55 | 0.0 | 0.0 | 0.00 | 0.00 | 0.00 | 65 | 1010.0 |
| 20260504021532 | 47 | 55 | 0.0 | 0.0 | 0.00 | 0.00 | 0.00 | 64 | 1010.1 |
| 20260504021029 | 47 | 55 | 0.0 | 0.0 | 0.00 | 0.00 | 0.00 | 64 | 1010.1 |
| 20260504020526 | 47 | 55 | 0.0 | 0.0 | 0.00 | 0.00 | 0.00 | 64 | 1010.0 |
| 20260504020022 | 47 | 55 | 0.0 | 0.0 | 0.00 | 0.00 | 0.00 | 64 | 1010.0 |
| 20260504015518 | 47 | 55 | 0.0 | 0.0 | 0.00 | 0.00 | 0.00 | 62 | 1009.9 |
| 20260504015015 | 47 | 55 | 0.0 | 0.0 | 0.00 | 0.00 | 0.00 | 63 | 1010.2 |
| 20260504014511 | 47 | 55 | 0.0 | 0.0 | 0.00 | 0.00 | 0.00 | 62 | 1010.0 |
| 20260504014008 | 48 | 55 | 0.0 | 0.0 | 0.00 | 0.00 | 0.00 | 59 | 1010.1 |
| 20260504013506 | 48 | 55 | 0.0 | 0.0 | 0.00 | 0.00 | 0.00 | 58 | 1010.0 |
| 20260504013002 | 48 | 55 | 0.0 | 0.0 | 0.00 | 0.00 | 0.00 | 60 | 1009.8 |
| 20260504012500 | 48 | 55 | 0.0 | 0.0 | 0.00 | 0.00 | 0.00 | 59 | 1009.8 |
| 20260504011958 | 48 | 55 | 0.0 | 0.0 | 0.00 | 0.00 | 0.00 | 57 | 1009.7 |
| 20260504011454 | 49 | 55 | 0.0 | 0.0 | 0.00 | 0.00 | 0.00 | 62 | 1009.8 |
| 20260504010950 | 49 | 55 | 0.0 | 0.0 | 0.00 | 0.00 | 0.00 | 53 | 1009.7 |
| 20260504010446 | 49 | 55 | 0.0 | 0.0 | 0.00 | 0.00 | 0.00 | 58 | 1009.6 |
| 20260504005942 | 50 | 55 | 0.0 | 0.0 | 0.00 | 0.00 | 0.00 | 54 | 1009.4 |
| 20260504005439 | 50 | 55 | 0.0 | 0.0 | 0.00 | 0.00 | 0.00 | 53 | 1009.5 |
| 20260504004937 | 50 | 55 | 0.0 | 0.0 | 0.00 | 0.00 | 0.00 | 54 | 1009.3 |
| 20260504004434 | 51 | 55 | 0.0 | 0.0 | 0.00 | 0.00 | 0.00 | 50 | 1009.5 |
| 20260504003931 | 51 | 55 | 0.0 | 0.0 | 0.00 | 0.00 | 0.00 | 50 | 1009.2 |
| 20260504003427 | 52 | 55 | 0.0 | 0.0 | 0.00 | 0.00 | 0.00 | 50 | 1009.1 |
| 20260504002924 | 52 | 55 | 0.0 | 0.0 | 0.00 | 0.00 | 0.00 | 48 | 1009.3 |
| 20260504002421 | 53 | 55 | 0.0 | 0.0 | 0.00 | 0.00 | 0.00 | 49 | 1009.0 |
| 20260504001918 | 53 | 54 | 0.0 | 0.0 | 0.00 | 0.00 | 0.00 | 48 | 1008.9 |
| 20260504001416 | 54 | 54 | 0.0 | 0.0 | 0.00 | 0.00 | 0.00 | 45 | 1008.7 |
| 20260504000912 | 54 | 55 | 0.0 | 0.0 | 0.00 | 0.00 | 0.00 | 42 | 1008.8 |
| 20260504000409 | 55 | 54 | 0.0 | 0.0 | 0.00 | 0.00 | 0.00 | 46 | 1008.7 |
| 20260503235907 | 55 | 55 | 0.0 | 1.0 | 0.00 | 0.00 | 0.00 | 44 | 1008.7 |
| 20260503235404 | 55 | 63 | 1.0 | 1.0 | 0.00 | 0.00 | 0.00 | 41 | 1008.6 |
| 20260503234902 | 55 | 71 | 1.0 | 1.0 | 0.00 | 0.00 | 0.00 | 41 | 1008.6 |
| 20260503234359 | 55 | 61 | 0.0 | 0.0 | 0.00 | 0.00 | 0.00 | 41 | 1008.4 |
| 20260503233857 | 56 | 105 | 1.0 | 2.0 | 0.00 | 0.00 | 0.00 | 41 | 1008.5 |
| 20260503233353 | 56 | 37 | 1.0 | 1.0 | 0.00 | 0.00 | 0.00 | 39 | 1008.3 |
| 20260503232849 | 56 | 64 | 0.0 | 0.0 | 0.00 | 0.00 | 0.00 | 39 | 1008.1 |
| 20260503232347 | 56 | 64 | 0.0 | 0.0 | 0.00 | 0.00 | 0.00 | 38 | 1008.2 |
| 20260503231845 | 56 | 64 | 0.0 | 0.0 | 0.00 | 0.00 | 0.00 | 37 | 1008.3 |
| 20260503231341 | 56 | 64 | 0.0 | 0.0 | 0.00 | 0.00 | 0.00 | 38 | 1008.2 |
| 20260503230837 | 56 | 62 | 0.0 | 0.0 | 0.00 | 0.00 | 0.00 | 38 | 1008.3 |
| 20260503230334 | 57 | 72 | 1.0 | 1.0 | 0.00 | 0.00 | 0.00 | 38 | 1008.3 |
| 20260503225833 | 57 | 57 | 0.0 | 0.0 | 0.00 | 0.00 | 0.00 | 37 | 1008.1 |
| 20260503225328 | 57 | 135 | 2.0 | 2.0 | 0.00 | 0.00 | 0.00 | 34 | 1008.0 |
| 20260503224824 | 57 | 1 | 1.0 | 1.0 | 0.00 | 0.00 | 0.00 | 37 | 1008.1 |
| 20260503224322 | 57 | 39 | 0.0 | 0.0 | 0.00 | 0.00 | 0.00 | 39 | 1008.2 |
| 20260503223820 | 57 | 26 | 2.0 | 2.0 | 0.00 | 0.00 | 0.00 | 34 | 1008.1 |
| 20260503223317 | 58 | 354 | 1.0 | 1.0 | 0.00 | 0.00 | 0.00 | 34 | 1008.1 |
| 20260503222812 | 58 | 28 | 2.0 | 2.0 | 0.00 | 0.00 | 0.00 | 33 | 1008.0 |
| 20260503222311 | 58 | 143 | 2.0 | 2.0 | 0.00 | 0.00 | 0.00 | 35 | 1007.9 |
| 20260503221809 | 58 | 66 | 0.0 | 0.0 | 0.00 | 0.00 | 0.00 | 34 | 1007.9 |
| 20260503221307 | 58 | 101 | 2.0 | 2.0 | 0.00 | 0.00 | 0.00 | 33 | 1008.0 |
| 20260503220803 | 58 | 46 | 1.0 | 1.0 | 0.00 | 0.00 | 0.00 | 35 | 1007.8 |
| 20260503220300 | 58 | 208 | 2.0 | 2.0 | 0.00 | 0.00 | 0.00 | 33 | 1007.8 |
| 20260503215756 | 58 | 65 | 0.0 | 0.0 | 0.00 | 0.00 | 0.00 | 33 | 1007.8 |
| 20260503215253 | 58 | 44 | 1.0 | 1.0 | 0.00 | 0.00 | 0.00 | 34 | 1008.0 |
| 20260503214752 | 58 | 158 | 3.0 | 3.0 | 0.00 | 0.00 | 0.00 | 32 | 1007.9 |
| 20260503214248 | 58 | 48 | 0.0 | 1.0 | 0.00 | 0.00 | 0.00 | 32 | 1008.1 |
| 20260503213746 | 58 | 46 | 0.0 | 0.0 | 0.00 | 0.00 | 0.00 | 34 | 1007.9 |
| 20260503213243 | 58 | 56 | 1.0 | 1.0 | 0.00 | 0.00 | 0.00 | 35 | 1008.1 |
| 20260503212740 | 58 | 326 | 2.0 | 2.0 | 0.00 | 0.00 | 0.00 | 33 | 1008.1 |
| 20260503212238 | 58 | 70 | 0.0 | 0.0 | 0.00 | 0.00 | 0.00 | 31 | 1008.0 |
| 20260503211735 | 58 | 108 | 2.0 | 2.0 | 0.00 | 0.00 | 0.00 | 34 | 1008.1 |
| 20260503211231 | 58 | 49 | 1.0 | 1.0 | 0.00 | 0.00 | 0.00 | 34 | 1008.1 |
| 20260503210727 | 58 | 3 | 1.0 | 2.0 | 0.00 | 0.00 | 0.00 | 31 | 1008.0 |
| 20260503210225 | 58 | 11 | 1.0 | 2.0 | 0.00 | 0.00 | 0.00 | 34 | 1008.0 |
| 20260503205719 | 57 | 179 | 3.0 | 5.0 | 0.00 | 0.00 | 0.00 | 37 | 1008.0 |
| 20260503205216 | 57 | 193 | 3.0 | 3.0 | 0.00 | 0.00 | 0.00 | 34 | 1008.2 |
| 20260503204712 | 58 | 233 | 3.0 | 3.0 | 0.00 | 0.00 | 0.00 | 33 | 1007.9 |
| 20260503204211 | 58 | 97 | 2.0 | 2.0 | 0.00 | 0.00 | 0.00 | 33 | 1007.9 |
| 20260503203707 | 59 | 230 | 2.0 | 3.0 | 0.00 | 0.00 | 0.00 | 32 | 1007.9 |
| 20260503203205 | 57 | 99 | 2.0 | 2.0 | 0.00 | 0.00 | 0.00 | 32 | 1007.9 |
| 20260503202702 | 58 | 46 | 1.0 | 1.0 | 0.00 | 0.00 | 0.00 | 32 | 1007.9 |
| 20260503202200 | 58 | 35 | 0.0 | 1.0 | 0.00 | 0.00 | 0.00 | 33 | 1007.9 |
| 20260503201657 | 58 | 337 | 2.0 | 2.0 | 0.00 | 0.00 | 0.00 | 32 | 1008.1 |
| 20260503201155 | 58 | 40 | 2.0 | 2.0 | 0.00 | 0.00 | 0.00 | 33 | 1008.0 |
| 20260503200651 | 57 | 119 | 3.0 | 3.0 | 0.00 | 0.00 | 0.00 | 34 | 1008.0 |
| 20260503200147 | 58 | 236 | 5.0 | 6.0 | 0.00 | 0.00 | 0.00 | 33 | 1008.3 |
| 20260503195644 | 57 | 272 | 3.0 | 3.0 | 0.00 | 0.00 | 0.00 | 33 | 1008.2 |
| 20260503195141 | 56 | 63 | 2.0 | 3.0 | 0.00 | 0.00 | 0.00 | 35 | 1008.2 |
| 20260503194638 | 57 | 42 | 2.0 | 2.0 | 0.00 | 0.00 | 0.00 | 34 | 1008.2 |
| 20260503194133 | 57 | 68 | 1.0 | 2.0 | 0.00 | 0.00 | 0.00 | 35 | 1008.2 |
| 20260503193631 | 57 | 358 | 2.0 | 3.0 | 0.00 | 0.00 | 0.00 | 34 | 1008.1 |
| 20260503193126 | 57 | 41 | 3.0 | 5.0 | 0.00 | 0.00 | 0.00 | 34 | 1008.3 |
| 20260503192622 | 57 | 311 | 2.0 | 6.0 | 0.00 | 0.00 | 0.00 | 35 | 1008.4 |
| 20260503192118 | 56 | 31 | 1.0 | 1.0 | 0.00 | 0.00 | 0.00 | 34 | 1008.5 |
| 20260503191615 | 57 | 80 | 1.0 | 1.0 | 0.00 | 0.00 | 0.00 | 37 | 1008.5 |
| 20260503191112 | 56 | 28 | 1.0 | 1.0 | 0.00 | 0.00 | 0.00 | 36 | 1008.5 |
| 20260503190609 | 57 | 319 | 3.0 | 3.0 | 0.00 | 0.00 | 0.00 | 35 | 1008.7 |
| 20260503190106 | 57 | 21 | 1.0 | 1.0 | 0.00 | 0.00 | 0.00 | 36 | 1008.5 |
| 20260503185603 | 57 | 15 | 2.0 | 2.0 | 0.00 | 0.00 | 0.00 | 34 | 1008.6 |
| 20260503185102 | 57 | 311 | 5.0 | 8.0 | 0.00 | 0.00 | 0.00 | 37 | 1008.7 |
| 20260503184558 | 57 | 2 | 2.0 | 2.0 | 0.00 | 0.00 | 0.00 | 37 | 1008.8 |
| 20260503184055 | 57 | 203 | 3.0 | 5.0 | 0.00 | 0.00 | 0.00 | 35 | 1008.8 |
| 20260503183551 | 56 | 180 | 5.0 | 6.0 | 0.00 | 0.00 | 0.00 | 38 | 1008.6 |
| 20260503183048 | 56 | 37 | 0.0 | 1.0 | 0.00 | 0.00 | 0.00 | 37 | 1008.8 |
| 20260503182547 | 57 | 338 | 2.0 | 3.0 | 0.00 | 0.00 | 0.00 | 34 | 1008.8 |
| 20260503182045 | 56 | 24 | 1.0 | 1.0 | 0.00 | 0.00 | 0.00 | 35 | 1008.9 |
| 20260503181541 | 55 | 13 | 4.0 | 5.0 | 0.00 | 0.00 | 0.00 | 37 | 1008.7 |
| 20260503181037 | 56 | 6 | 3.0 | 3.0 | 0.00 | 0.00 | 0.00 | 37 | 1008.7 |
| 20260503180535 | 55 | 287 | 3.0 | 5.0 | 0.00 | 0.00 | 0.00 | 40 | 1008.7 |
| 20260503180032 | 55 | 272 | 3.0 | 6.0 | 0.00 | 0.00 | 0.00 | 39 | 1008.9 |
| 20260503175530 | 54 | 89 | 1.0 | 2.0 | 0.00 | 0.00 | 0.00 | 43 | 1009.0 |
| 20260503175026 | 54 | 24 | 3.0 | 3.0 | 0.00 | 0.00 | 0.00 | 40 | 1008.9 |
| 20260503174524 | 55 | 78 | 2.0 | 2.0 | 0.00 | 0.00 | 0.00 | 39 | 1009.1 |
| 20260503174020 | 54 | 29 | 1.0 | 1.0 | 0.00 | 0.00 | 0.00 | 40 | 1009.0 |
| 20260503173515 | 53 | 48 | 2.0 | 3.0 | 0.00 | 0.00 | 0.00 | 41 | 1009.1 |
| 20260503173012 | 53 | 286 | 3.0 | 3.0 | 0.00 | 0.00 | 0.00 | 44 | 1009.3 |
| 20260503172510 | 53 | 356 | 4.0 | 6.0 | 0.00 | 0.00 | 0.00 | 42 | 1009.3 |
| 20260503172006 | 53 | 88 | 4.0 | 5.0 | 0.00 | 0.00 | 0.00 | 44 | 1009.3 |
| 20260503171503 | 52 | 111 | 5.0 | 6.0 | 0.00 | 0.00 | 0.00 | 42 | 1009.4 |
| 20260503171000 | 52 | 53 | 0.0 | 1.0 | 0.00 | 0.00 | 0.00 | 43 | 1009.3 |
| 20260503170456 | 52 | 337 | 3.0 | 3.0 | 0.00 | 0.00 | 0.00 | 47 | 1009.3 |